Regional Weather Roundup
Issued by NWS Cleveland, OH

Home | Current Version | Previous Version | Text Only | Print | Product List | Glossary Off
Versions: 1 2 3 4 5 6 7 8 9 10 11 12 13 14 15 16 17 18 19 20 21 22 23 24 25 26 27 28 29 30 31 32 33 34 35 36 37 38 39 40 41 42 43 44 45 46 47 48 49 50

000
ASUS41 KCLE 190510
RWRCLE
OHIO REGIONAL WEATHER ROUNDUP
NATIONAL WEATHER SERVICE CLEVELAND, OH
100 AM EDT SAT APR 19 2014

NOTE: "FAIR" INDICATES FEW OR NO CLOUDS BELOW 12,000 FEET WITH NO
SIGNIFICANT WEATHER AND/OR OBSTRUCTIONS TO VISIBILITY.

OHZ001>008-015>018-024>027-034-035-043-044-190600-
   NORTHWEST OHIO

CITY           SKY/WX    TMP DP  RH WIND       PRES   REMARKS
DEFIANCE       CLEAR     47  34  60 N5        30.32R
FINDLAY        CLEAR     47  41  80 NE10      30.28S
TOLEDO EXPRESS CLEAR     44  40  85 NE5       30.32R
TOLEDO EXEC    PTCLDY    44  38  79 NE13G21   30.34R
LIMA           PTCLDY    49  41  74 N6        30.28R
$$

OHZ009>014-019>023-028>033-038-089-190600-
   NORTHEAST OHIO

CITY           SKY/WX    TMP DP  RH WIND       PRES   REMARKS
CLE-HOPKINS    PTCLDY    48  40  73 N8        30.32R
CLE-LAKEFRONT  CLEAR     45  42  89 NE6       30.30R
CUY CO. ARPT   NOT AVBL
LORAIN-ELYRIA  PTCLDY    48  40  73 NE8       30.30R
ASHTABULA      PTCLDY    44  38  79 NE3       30.31R
AKRON-CANTON   PTCLDY    48  41  76 NE8       30.28R
WOOSTER        PTCLDY    47  39  74 NE6       30.28R
MANSFIELD      PTCLDY    47  40  76 NE7       30.27R
YOUNGSTOWN     MOCLDY    47  40  76 NE5       30.27S
$$

OHZ042-051>053-060>062-070>072-077>081-190600-
  SOUTHWEST OHIO

CITY           SKY/WX    TMP DP  RH WIND       PRES   REMARKS
CINC-COVINGTON MOCLDY    56  39  53 N8        30.24S
CINC-LUNKEN    CLEAR     46  43  89 CALM      30.24F
HAMILTON       PTCLDY    56  41  57 N6        30.26R
DAYTON         MOCLDY    54  37  52 N9        30.28R
WRIGHT-PAT AFB MOCLDY    53  40  61 N8        30.26R
DAYTON GENERAL PTCLDY    54  40  59 N8        30.25R
WILMINGTON     PTCLDY    53  38  56 N9        30.24S
$$

OHZ036-037-039>041-045>050-054>059-063>069-073>076-082>088-190600-
  CENTRAL AND SOUTHEAST OHIO

CITY           SKY/WX    TMP DP  RH WIND       PRES   REMARKS
COLUMBUS       PTCLDY    52  39  61 CALM      30.24R
OSU AIRPORT    MOCLDY    52  40  63 N6        30.25R
BOLTON FIELD   PTCLDY    49  40  69 CALM      30.25R
RICKENBACK AFB PTCLDY    53  39  59 NW3       30.23S
NEWARK         PTCLDY    45  40  82 CALM      30.23S
MARION         MOCLDY    46  41  82 NE7       30.27R
LANCASTER      CLEAR     43  40  89 CALM      30.23F
ZANESVILLE     PTCLDY    47  37  68 CALM      30.23S
NEW PHILLY     PTCLDY    46  39  76 CALM      30.27R
$$



USA.gov is the U.S. government's official web portal to all federal, state and local government web resources and services.